Location: Beneden-Haastrecht
(52.0012°N, 4.7557°E)
Time: 03:23:32
(UTC+00:00)

Cosmos 1331 Rocket - Pass Details

Date: 24 October 2020
Orbit: 750 x 778 km, 74.0° (Epoch: 24 November)

Event Time Altitude Azimuth Distance (km) Brightness Sun altitude
Rises 17:53:26 0° 196° (SSW) 3,192 7.5 -13.8°
Reaches altitude 10° 17:55:47 10° 194° (SSW) 2,270 6.6 -14.2°
Maximum altitude 18:00:54 72° 111° (ESE) 794 3.9 -15.0°
Drops below altitude 10° 18:06:03 10° 28° (NNE) 2,283 6.2 -15.8°
Sets 18:08:25 0° 27° (NNE) 3,212 7.0 -16.2°
